Weather History for Pellston, MI

Change the Weather History Date:

Wednesday, June 26, 2013

  Actual Average Record
Temperature  
Mean Temperature 72 °F -  
Max Temperature 90 °F 78 °F 94 °F (1991)
Min Temperature 54 °F 51 °F 35 °F (2004)
Cooling Degree Days 6    
Growing Degree Days 22 (Base 50)    
Moisture  
Dew Point 59 °F    
Average Humidity 72    
Maximum Humidity 97    
Minimum Humidity 36    
Precipitation  
Precipitation 0.00 in - - ()
Sea Level Pressure  
Sea Level Pressure 29.80 in    
Wind  
Wind Speed 1 mph (ESE)    
Max Wind Speed 14 mph    
Max Gust Speed -    
Visibility 9 miles    
Events      
Averages and records for this station are not official NWS values.
T = Trace of Precipitation, MM = Missing Value Source: NWS Daily Summary

Daily Weather History Graph

Daily Weather History Graph

Search for Another Location

Airport:

Trip Planner

Search our weather history database for the weather conditions in past years. The results will help you decide how hot, cold, wet, or windy it might be!

Date:

Astronomy

Jun. 26, 2013 Rise Set
Actual Time 5:51 AM EDT 9:32 PM EDT
Civil Twilight 5:13 AM EDT 10:10 PM EDT
Nautical Twilight 4:22 AM EDT 11:01 PM EDT
Astronomical Twilight 3:13 AM EDT 12:10 AM EDT
Moon 11:40 PM EDT (6/26) 9:54 AM EDT (6/26)
Length of Visible Light 16h 56m
Length of Day
15h 40m
Waning Gibbous, 85% of the Moon is Illuminated
Jun 26
Waning Gibbous
Jun 30
Last Quarter
Jul 8
New
Jul 15
First Quarter
Jul 22
Full

Hourly Weather History & Observations

Time (EDT) Temp. Heat Index Dew Point Humidity Pressure Visibility Wind Dir Wind Speed Gust Speed Precip Events Conditions
12:54 AM 61.0 °F - 59.0 °F 93% 29.83 in 9.0 mi Calm Calm - N/A   Clear
1:54 AM 60.1 °F - 57.9 °F 93% 29.83 in 7.0 mi Calm Calm - N/A   Clear
2:49 AM 57.2 °F - 55.4 °F 94% 29.83 in 2.0 mi Calm Calm - N/A   Clear
2:54 AM 57.9 °F - 55.9 °F 93% 29.82 in 4.0 mi Calm Calm - N/A   Clear
3:54 AM 55.9 °F - 54.0 °F 93% 29.82 in 7.0 mi Calm Calm - N/A   Clear
4:51 AM 55.4 °F - 53.6 °F 94% 29.81 in 6.0 mi Calm Calm - N/A   Scattered Clouds
4:54 AM 55.0 °F - 54.0 °F 96% 29.81 in 7.0 mi Calm Calm - N/A   Mostly Cloudy
5:19 AM 55.4 °F - 53.6 °F 94% 29.80 in 6.0 mi Calm Calm - N/A   Partly Cloudy
5:43 AM 55.4 °F - 53.6 °F 94% 29.81 in 9.0 mi Calm Calm - N/A   Mostly Cloudy
5:54 AM 54.0 °F - 53.1 °F 97% 29.81 in 3.0 mi Calm Calm - N/A   Mostly Cloudy
6:09 AM 55.4 °F - 53.6 °F 94% 29.81 in 10.0 mi Calm Calm - N/A   Scattered Clouds
6:54 AM 59.0 °F - 55.9 °F 90% 29.82 in 10.0 mi Calm Calm - N/A   Clear
7:54 AM 66.0 °F - 62.1 °F 87% 29.82 in 10.0 mi Calm Calm - N/A   Clear
8:54 AM 71.1 °F - 64.0 °F 78% 29.83 in 10.0 mi Variable 3.5 mph - N/A   Clear
9:54 AM 75.9 °F - 63.0 °F 64% 29.82 in 10.0 mi Calm Calm - N/A   Clear
10:54 AM 80.1 °F 81.2 °F 62.1 °F 54% 29.82 in 10.0 mi SW 3.5 mph - N/A   Clear
11:54 AM 82.0 °F 82.1 °F 59.0 °F 45% 29.81 in 10.0 mi South 5.8 mph - N/A   Clear
12:54 PM 84.0 °F 83.3 °F 57.0 °F 40% 29.80 in 10.0 mi Variable 3.5 mph - N/A   Clear
1:54 PM 86.0 °F 85.0 °F 57.9 °F 38% 29.79 in 10.0 mi SW 5.8 mph - N/A   Clear
2:54 PM 87.1 °F 86.1 °F 57.9 °F 37% 29.78 in 10.0 mi Calm Calm - N/A   Clear
3:54 PM 88.0 °F 87.1 °F 59.0 °F 37% 29.76 in 10.0 mi Variable 5.8 mph - N/A   Clear
4:54 PM 89.1 °F 88.2 °F 59.0 °F 36% 29.75 in 10.0 mi Variable 5.8 mph - N/A   Clear
5:54 PM 84.9 °F 86.1 °F 64.0 °F 49% 29.77 in 10.0 mi East 13.8 mph - N/A   Clear
6:54 PM 84.0 °F 85.4 °F 64.0 °F 51% 29.75 in 10.0 mi NE 6.9 mph - N/A   Clear
7:54 PM 82.0 °F 83.4 °F 64.0 °F 54% 29.75 in 10.0 mi ENE 6.9 mph - N/A   Mostly Cloudy
8:54 PM 78.1 °F - 63.0 °F 60% 29.73 in 10.0 mi ENE 3.5 mph - N/A   Clear
9:54 PM 72.0 °F - 64.9 °F 78% 29.76 in 10.0 mi West 8.1 mph - N/A   Clear
10:54 PM 69.1 °F - 62.1 °F 78% 29.78 in 10.0 mi Calm Calm - N/A   Clear
11:54 PM 69.1 °F - 63.0 °F 81% 29.78 in 10.0 mi Calm Calm - N/A   Scattered Clouds